INTELSAT 36 (IS-36)

Last updated on Tue Oct 21 2025 00:02:53 GMT+0000 (Coordinated Universal Time)

1 41747U 16053A 25293.42253743 -.00000023 00000+0 00000+0 0 9993 2 41747 0.0137 300.7597 0001736 49.7134 259.2903 1.00274309 33543
UTC large
Height (km)
Speed (km/s)
/
Latitude / Longitude
Inclination (degrees)
Orbital Period (minutes)
Azimuth
Elevation
Range (km)
Doppler Factor

Next 0 passes for location: London (51.5072 / 0.1276)

Sorry there are no passes over London.